Minneapolis Flying Cloud, MN

1:14 PM CDT on May 28, 2017 (GMT -0500)
Flying Cloud

Weather History for KFCM - August, 2012

Change the Weather History Date:

Wednesday, August 1, 2012

  Actual Average Record
Temperature  
Mean Temperature 80 °F -  
Max Temperature 93 °F 80 °F 93 °F (2012)
Min Temperature 68 °F 61 °F 55 °F (2013)
Cooling Degree Days 16    
Growing Degree Days 30 (Base 50)    
Moisture  
Dew Point 67 °F    
Average Humidity 67    
Maximum Humidity 84    
Minimum Humidity 50    
Precipitation  
Precipitation 0.00 in - - ()
Sea Level Pressure  
Sea Level Pressure 29.85 in    
Wind  
Wind Speed 8 mph (SSW)    
Max Wind Speed 21 mph    
Max Gust Speed 31 mph    
Visibility 10 miles    
Events Rain    
Averages and records for this station are not official NWS values.
T = Trace of Precipitation, MM = Missing Value Source: NWS Daily Summary

Daily Weather History Graph

Daily Weather History Graph

Search for Another Location

Airport or City:

Trip Planner

Search our weather history database for the weather conditions in past years. The results will help you decide how hot, cold, wet, or windy it might be!

Date:

Astronomy

Aug. 01, 2012 Rise Set
Actual Time 6:00 AM CDT 8:39 PM CDT
Civil Twilight 5:26 AM CDT 9:12 PM CDT
Nautical Twilight 4:44 AM CDT 9:54 PM CDT
Astronomical Twilight 3:55 AM CDT 10:42 PM CDT
Moon 8:06 PM CDT (8/1) 5:31 AM CDT (8/1)
Length of Visible Light 15h 45m
Length of Day
14h 39m
Full, 100% of the Moon is Illuminated
Aug 1
Full
Aug 1
Full
Aug 9
Last Quarter
Aug 17
New
Aug 24
First Quarter

Hourly Weather History & Observations

Time (CDT) Temp. Heat Index Dew Point Humidity Pressure Visibility Wind Dir Wind Speed Gust Speed Precip Events Conditions
12:53 AM 72.0 °F - 66.0 °F 81% 29.93 in 10.0 mi South 5.8 mph - N/A   Clear
1:53 AM 72.0 °F - 66.0 °F 81% 29.93 in 9.0 mi South 3.5 mph - N/A   Clear
2:53 AM 70.0 °F - 64.9 °F 84% 29.91 in 10.0 mi South 4.6 mph - N/A   Clear
3:53 AM 70.0 °F - 64.0 °F 81% 29.90 in 10.0 mi SE 4.6 mph - N/A   Clear
4:53 AM 68.0 °F - 63.0 °F 84% 29.89 in 10.0 mi SSE 5.8 mph - N/A   Clear
5:53 AM 68.0 °F - 63.0 °F 84% 29.90 in 10.0 mi South 5.8 mph - N/A   Clear
6:53 AM 70.0 °F - 64.0 °F 81% 29.89 in 10.0 mi South 5.8 mph - N/A   Partly Cloudy
7:53 AM 73.0 °F - 64.0 °F 73% 29.87 in 10.0 mi South 10.4 mph - N/A   Clear
8:53 AM 75.9 °F - 64.0 °F 67% 29.87 in 10.0 mi SSW 10.4 mph - N/A   Clear
9:53 AM 80.1 °F 82.3 °F 66.9 °F 64% 29.86 in 10.0 mi SSW 9.2 mph - N/A   Clear
10:53 AM 81.0 °F 83.3 °F 66.9 °F 62% 29.88 in 10.0 mi SW 9.2 mph - N/A   Clear
11:53 AM 79.0 °F - 68.0 °F 69% 29.86 in 10.0 mi SSW 11.5 mph - 0.00 in Rain Light Rain
12:53 PM 87.1 °F 92.0 °F 70.0 °F 57% 29.82 in 10.0 mi SSW 16.1 mph 21.9 mph 0.00 in   Clear
1:53 PM 84.9 °F 88.8 °F 69.1 °F 59% 29.81 in 10.0 mi SW 13.8 mph 21.9 mph N/A   Partly Cloudy
2:53 PM 91.0 °F 96.6 °F 70.0 °F 50% 29.80 in 10.0 mi WSW 16.1 mph 21.9 mph N/A   Clear
3:53 PM 91.0 °F 96.6 °F 70.0 °F 50% 29.79 in 10.0 mi WSW 10.4 mph 20.7 mph N/A   Clear
4:53 PM 91.9 °F 100.7 °F 73.0 °F 54% 29.78 in 10.0 mi SW 9.2 mph - N/A   Clear
5:53 PM 93.0 °F 101.9 °F 73.0 °F 52% 29.76 in 10.0 mi WSW 9.2 mph - N/A   Partly Cloudy
6:53 PM 90.0 °F 95.4 °F 70.0 °F 52% 29.77 in 10.0 mi WNW 9.2 mph - N/A   Clear
7:53 PM 87.1 °F 93.6 °F 72.0 °F 61% 29.79 in 10.0 mi West 5.8 mph - N/A   Clear
8:53 PM 84.0 °F 90.2 °F 73.0 °F 69% 29.82 in 10.0 mi WSW 20.7 mph 31.1 mph 0.00 in   Partly Cloudy
9:53 PM 77.0 °F - 61.0 °F 58% 29.84 in 10.0 mi WSW 9.2 mph 18.4 mph 0.00 in   Partly Cloudy
10:53 PM 75.0 °F - 62.1 °F 64% 29.82 in 10.0 mi West 3.5 mph - N/A   Clear